DELTA 1 DEB, 7173

Orbit data source: Space-Track

DELTA 1 DEB, 7173 is space debris in SSO originally from a launch on Tue, 06 Nov 1973 UTC launched from the Air Force Western Test Range (AFWTR). Debris objects in space refer to the collection of defunct objects orbiting the Earth. Examples of debris include non-operational satellites, rocket bodies, and fragments generated from explosions, collisions, or faulty payload assembly.

Loading next visibility...
Identifier
7173, 1973-086EK
Orbit
SSO
Country
Flag of USUS
Related business
Manufacturer
Unknown
Mission
Spacecraft
Bus & Motor
Unknown
Mass
Unknown
Launch date (UTC)
1973-11-06 (52 years ago)
Launch vehicle
Unknown
Launch site
Air Force Western Test Range (AFWTR)
Object type
Payload
Rocket body
Debris
Shape & HBR
Unknown shape, 0.1 m
Radar Cross Section
Small (<0.1 m²)

Expand to show TLE details & history
Last TLE update: 19 hours ago

TLE from 19 hours ago
0 DELTA 1 DEB
1 07173U 73086EK  25292.32179328  .00000604  00000-0  52014-2 0  9991
2 07173 102.5235  73.5222 0227876 184.3071 250.0995 12.28135087148331
Epoch: 2025-10-19T07:43Z
TLE epoch observation values (Epoch: 2025-10-19T07:43:22.939Z)
Latitude
68.24948°
Longitude
-104.01008°
Altitude
1,634.079 km
Speed
7.032 km/s
True Right ascension
02h 39m 30s
True Declination
68° 08' 38"
Sunlit
Object was in daylight at epoch
Visualization orbit readout
Latitude
Unknown
Longitude
Unknown
Altitude
Unknown
Speed
Unknown
Apparent Right ascension
Unknown
Apparent Declination
Unknown
Sunlit
N/A
Visualization observer readout
Local Sidereal Time
21:39:34
Azimuth
Unknown
Elevation
Unknown
Doppler factor
Unknown
Orbital elements
Apogee altitude
1,735.7 km
Perigee altitude
1,374.149 km
Semi-major axis
7,933.061 km
Eccentricity
0.02279
Inclination
102.5235°
RAAN
73.5222°
Arg. of periapsis
184.3071°
True anomaly
247.66848°
Mean anomaly
250.0995°
Eccentric anomaly
248.88156°
Mean motion
3.07172 °/min
Orbital period
117.2 mins
BSTAR
0.0052014
Loading maneuver chart data...
Computing Atmospheric mass density...
Loading historical data...
Loading historical data...
Loading historical data...
Loading historical data...
Loading historical data...
Loading historical data...
Loading historical data...

Documentation

Showing up to 5 results
|